This demonstration page uses our WeatherBlox Daily Observations layout. Learn more.

Left ArrowRight Arrow

44.89941, -97.11507

Hourly Observations for April 1, 2019

Temp ( °F °C ) Dew Point ( °F °C ) Humidity (%) Winds ( mph kmh ) Pressure ( in mb ) Visibility ( mi km ) Precip ( " mm )
12:01 am 00:01 Mostly Cloudy 30 -1.1 27 -2.8 88 88 N 13 20 30.17 1022 10 16 0.00 0.00
12:42 am 00:42 Mostly Cloudy 29 -1.7 27 -2.8 92 92 NNE 12 19 30.18 1022 10 16 0.00 0.00
12:53 am 00:53 Partly Cloudy 28 -2.2 26 -3.3 92 92 NNE 8 13 30.14 1021 10 16 0.00 0.00
1:53 am 01:53 Partly Cloudy 25 -3.9 23 -5 92 92 N 7 11 30.15 1021 10 16 0.00 0.00
2:00 am 02:00 Mostly Cloudy 25 -3.9 23 -5 92 92 N 7 11 30.21 1023 10 16 0.00 0.00
2:53 am 02:53 Cloudy 28 -2.2 26 -3.3 92 92 NNE 12 19 30.14 1021 10 16 0.00 0.00
3:53 am 03:53 Cloudy 28 -2.2 26 -3.3 92 92 NNE 10 17 30.13 1020 10 16 0.00 0.00
4:53 am 04:53 Cloudy 29 -1.7 26 -3.3 89 89 N 10 17 30.12 1020 10 16 0.00 0.00
5:53 am 05:53 Cloudy 29 -1.7 26 -3.3 89 89 N 12 19 30.13 1020 10 16 0.00 0.00
6:53 am 06:53 Cloudy 29 -1.7 25 -3.9 85 85 N 9 15 30.13 1020 10 16 0.00 0.00
7:53 am 07:53 Cloudy 29 -1.7 26 -3.3 89 89 NNW 8 13 30.15 1021 10 16 0.00 0.00
8:53 am 08:53 Cloudy 30 -1.1 27 -2.8 88 88 NNW 9 15 30.16 1021 10 16 0.00 0.00
9:21 am 09:21 Cloudy 31 -0.6 26 -3.3 82 82 N 10 17 30.18 1022 10 16 0.00 0.00
9:53 am 09:53 Cloudy 32 0 26 -3.3 79 79 N 10 17 30.14 1021 10 16 0.00 0.00
10:53 am 10:53 Partly Cloudy 34 1.1 23 -5 64 64 NNW 10 17 30.13 1020 10 16 0.00 0.00
11:53 am 11:53 Cloudy 35 1.7 21 -6.1 57 57 N 10 17 30.13 1020 10 16 0.00 0.00
12:53 pm 12:53 Cloudy 35 1.7 21 -6.1 57 57 NNW 13 20 30.12 1020 10 16 0.00 0.00
1:53 pm 13:53 Cloudy 35 1.7 21 -6.1 57 57 NW 10 17 30.12 1020 10 16 0.00 0.00
2:53 pm 14:53 Cloudy 36 2.2 22 -5.6 57 57 NNW 9 15 30.10 1019 10 16 0.00 0.00
3:53 pm 15:53 Cloudy 35 1.7 21 -6.1 57 57 NW 9 15 30.10 1019 10 16 0.00 0.00
4:53 pm 16:53 Cloudy 35 1.7 21 -6.1 57 57 NW 8 13 30.08 1019 10 16 0.00 0.00
5:53 pm 17:53 Cloudy 35 1.7 22 -5.6 59 59 WNW 10 17 30.08 1019 10 16 0.00 0.00
6:53 pm 18:53 Mostly Cloudy 33 0.6 26 -3.3 75 75 WNW 10 17 30.08 1019 10 16 0.00 0.00
7:53 pm 19:53 Cloudy 31 -0.6 26 -3.3 82 82 WNW 8 13 30.09 1019 10 16 0.00 0.00
8:53 pm 20:53 Mostly Cloudy 30 -1.1 25 -3.9 82 82 W 8 13 30.10 1019 10 16 0.00 0.00
9:39 pm 21:39 Mostly Cloudy 30 -1.1 26 -3.3 85 85 W 12 19 30.13 1020 10 16 0.00 0.00
9:53 pm 21:53 Mostly Cloudy 29 -1.7 26 -3.3 89 89 W 9 15 30.10 1019 10 16 0.00 0.00
10:01 pm 22:01 Partly Cloudy 29 -1.7 25 -3.9 85 85 W 8 13 30.13 1020 10 16 0.00 0.00
10:19 pm 22:19 Mostly Cloudy 29 -1.7 26 -3.3 89 89 W 10 17 30.13 1020 10 16 0.00 0.00
10:31 pm 22:31 Mostly Cloudy 29 -1.7 26 -3.3 89 89 W 13 20 30.13 1020 10 16 0.00 0.00
10:53 pm 22:53 Partly Cloudy 29 -1.7 26 -3.3 89 89 W 10 17 30.09 1019 10 16 0.00 0.00
11:53 pm 23:53 Clear 28 -2.2 25 -3.9 88 88 WSW 9 15 30.08 1019 10 16 0.00 0.00

Powered by AerisWeather